Regional Weather Roundup
Issued by NWS

Home | Current Version | Previous Version | Text Only | Print | Product List | Glossary On
Versions: 1 2 3 4 5 6 7 8 9 10 11 12 13 14 15 16 17 18 19 20 21 22 23 24 25 26 27 28 29 30 31 32 33 34 35 36 37 38 39 40 41 42 43 44 45 46 47 48 49 50
000
ASUS43 KDTX 262110
RWRMI
MICHIGAN HOURLY REGIONAL WEATHER ROUNDUP
NATIONAL WEATHER SERVICE DETROIT/PONTIAC MI
500 PM EDT MON SEP 26 2016

NOTE: "FAIR" INDICATES FEW OR NO CLOUDS BELOW 12,000 FEET WITH NO
SIGNIFICANT WEATHER AND/OR OBSTRUCTION TO VISIBILITY.

MIZ047>049-052>055-059>063-066>070-074>076-081>083-262200-
SOUTHEAST LOWER MICHIGAN

CITY           SKY/WX    TMP DP  RH WIND       PRES   REMARKS
ADRIAN         SUNNY     68  43  40 W15G22    29.91F
ALMA           MOSUNNY   64  44  47 SW18G31   29.84F
ANN ARBOR      SUNNY     67  41  38 SW18G24   29.88F
BAD AXE        PTSUNNY   65  44  46 W16G23    29.82R
CARO           MOSUNNY   66  44  45 SW17G24   29.82S
DETROIT CITY   MOSUNNY   68  45  43 W15G26    29.87F
DETROIT        PTSUNNY   68  45  43 W15       29.88F
FLINT          MOSUNNY   66  43  43 W18G29    29.85S
GROSSE ILE     MOSUNNY   69  46  43 W8        29.88F
HILLSDALE      SUNNY     68  36  30 W10G21    29.91F
HOWELL         PTSUNNY   65  42  43 W14G24    29.87F

CITY           SKY/WX    TMP DP  RH WIND       PRES   REMARKS
JACKSON        MOSUNNY   66  42  41 W16G29    29.90S
LAMBERTVILLE   MOSUNNY   69  45  41 SW7       29.91F
LANSING        MOSUNNY   66  41  40 W17G28    29.88S
LAPEER         CLOUDY    67  43  42 W12G18    29.85S
MASON          PTSUNNY   66  41  39 W14G26    29.89S
MONROE         MOSUNNY   70  47  44 W16G22    29.88F
MT. CLEMENS    MOSUNNY   68  47  46 W14       29.84F
PONTIAC        PTSUNNY   64  42  44 W14G26    29.86S
PORT HOPE        N/A     66  43  43 W12G28    29.78F
PORT HURON     CLOUDY    64  48  55 SW8       29.86S
TRI CITIES     MOSUNNY   66  43  43 SW18G33   29.82F HAZE
MIDLAND        FAIR      64  43  46 SW14G22   29.81S
TROY           MOSUNNY   69  40  35 W14G22    29.88F
SAGINAW HB     SUNNY     66  43  42 SW18G26   29.82F
$$
MIZ043>046-050>051-056>058-064>065-071>073-077>080-262200-
SOUTHWEST LOWER MICHIGAN

CITY           SKY/WX    TMP DP  RH WIND       PRES   REMARKS
BATTLE CREEK   MOSUNNY   65  43  44 W15       29.91S
BENTON HARBOR  SUNNY     68  38  33 W20G32    29.92S
BIG RAPIDS     PTSUNNY   63  37  39 W20G32    29.82S
COLDWATER      SUNNY     68  35  29 W13G23    29.92S
FREMONT        PTSUNNY   63  31  29 W16G28    29.84S
HOLLAND        PTSUNNY   65  40  39 SW22G32   29.90S
GRAND RAPIDS   PTSUNNY   66  40  38 W21G35    29.88S
IONIA          CLOUDY    63  40  43 W24G31    29.86F
KALAMAZOO      MOSUNNY   66  39  37 W17G28    29.92S
LUDINGTON      CLOUDY    63  41  44 W20G28    29.81S
MARSHALL       PTSUNNY   65  40  40 W21G28    29.90S
MOUNT PLEASANT LGT RAIN  60  47  61 SW14G28   29.82R
MUSKEGON       MOSUNNY   64  41  42 W16G31    29.87R
SOUTH HAVEN    SUNNY     68  43  39 W14       29.92S
$$
MIZ016>042-262200-
NORTHERN LOWER MICHIGAN

CITY           SKY/WX    TMP DP  RH WIND       PRES   REMARKS
ALPENA         CLOUDY    60  45  57 SW8       29.75R
BEAVER ISLAND  CLOUDY    58  48  71 W25G35    29.68R
BELLAIRE       CLOUDY    56  50  79 S3        29.74S
CADILLAC       MOSUNNY   60  37  42 SW16G32   29.79R
CHARLEVOIX     LGT RAIN  57  49  74 SW23G33   29.74S
FRANKFORT      CLOUDY    63  42  45 W15G24    29.76S
GAYLORD        LGT RAIN  54  48  80 SW15      29.75R
GRAYLING       CLOUDY    54  49  85 SW5       29.78R
HARBOR SPRINGS LGT RAIN  55  51  87 SW14G21   29.69S
HOUGHTON LAKE  CLOUDY    60  42  51 W13G22    29.79S
MANISTEE       CLOUDY    62  41  46 W18G33    29.79R
OSCODA         PTSUNNY   62  46  56 SW10      29.77S
PELLSTON       LGT RAIN  56  48  74 W16G24    29.70S
ROGERS CITY    CLOUDY    60  48  64 SW10G21   29.73S
TRAVERSE CITY  CLOUDY    58  51  78 SW6       29.74F
$$
MIZ007>008-015-262200-
EASTERN UPPER MICHIGAN

CITY           SKY/WX    TMP DP  RH WIND       PRES   REMARKS
KINROSS        CLOUDY    55  51  86 SW7       29.65S
MACKINAC ISLAN LGT RAIN  57  49  75 SW17G28   29.67R
NEWBERRY       LGT RAIN  54  51  90 W15G22    29.64R
S. S. MARIE    CLOUDY    60  49  66 W9G16     29.63F
MUNISING         N/A     56  48  74 SW6G21    29.63R
$$
MIZ004>006-011>014-085-262200-
CENTRAL UPPER MICHIGAN

CITY           SKY/WX    TMP DP  RH WIND       PRES   REMARKS
MANISTIQUE     CLOUDY    57  45  63 SW10G23   29.66R
ESCANABA       CLOUDY    57  45  64 W16G25    29.69R
MENOMINEE      CLOUDY    58  43  57 W8        29.74S
SAWYER-GWINN   CLOUDY    52  45  76 W17G25    29.65R
$$
MIZ001>003-009>011-084-262200-
WESTERN UPPER MICHIGAN

CITY           SKY/WX    TMP DP  RH WIND       PRES   REMARKS
IRON MOUNTAIN  CLOUDY    55  42  61 W15       29.69R
HOUGHTON       LGT RAIN  52  48  86 W22G35    29.55R
COPPER HARBOR    N/A     54  50  86 NW8G24    29.51R
IRONWOOD       RAIN      49  47  93 W20       29.70R FOG
$$

ABBREVIATIONS USED IN REMARKS
   TC - TEMPERATURE IN CELSIUS
  WCI - WIND CHILL INDEX
   HX - HEAT INDEX
  VSB - VISIBILITY




USA.gov is the U.S. government's official web portal to all federal, state and local government web resources and services.